Location: Powder Track
(41.8531°N, 72.3584°W)
Time: 08:57:25
(UTC+00:00)

Transit 4A - Pass Details

Date: 06 August 2021
Orbit: 871 x 974 km, 66.8° (Epoch: 20 September)

Event Time Altitude Azimuth Distance (km) Brightness Sun altitude
Rises 11:40:49 0° 334° (NNW) 3,477 10.7 19.3°
Reaches altitude 10° 11:43:25 10° 340° (NNW) 2,543 10.1 19.8°
Maximum altitude 11:49:03 45° 53° (NE) 1,197 9.6 20.8°
Drops below altitude 10° 11:54:46 10° 126° (SE) 2,587 11.2 21.9°
Sets 11:57:25 0° 132° (SE) 3,541 11.6 22.4°
